Change the Weather History Date:

Wednesday, January 23, 2013

  Actual Average Record
Temperature  
Mean Temperature 27 °F -  
Max Temperature 35 °F 50 °F 77 °F (1999)
Min Temperature 19 °F 31 °F 15 °F (2003)
Degree Days  
Heating Degree Days 38    
Moisture  
Dew Point 4 °F    
Average Humidity 36    
Maximum Humidity 52    
Minimum Humidity 23    
Precipitation  
Precipitation 0.00 in - - ()
Sea Level Pressure  
Sea Level Pressure 30.27 in    
Wind  
Wind Speed 6 mph (NNW)    
Max Wind Speed 14 mph    
Max Gust Speed -    
Visibility 10 miles    
Events      
Averages and records for this station are not official NWS values.
T = Trace of Precipitation, MM = Missing Value Source: NWS Daily Summary

Daily Weather History Graph

Daily Weather History Graph

Search for Another Location

Airport or City:

Trip Planner

Search our weather history database for the weather conditions in past years. The results will help you decide how hot, cold, wet, or windy it might be!

Date:

Astronomy

Jan. 23, 2013 Rise Set
Actual Time 7:14 AM EST 5:21 PM EST
Civil Twilight 6:47 AM EST 5:49 PM EST
Nautical Twilight 6:15 AM EST 6:20 PM EST
Astronomical Twilight 5:44 AM EST 6:51 PM EST
Moon 2:31 PM EST (1/23) 4:23 AM EST (1/23)
Length of Visible Light 11h 02m
Length of Day
10h 06m
Waxing Gibbous, 89% of the Moon is Illuminated
Jan 23
Waxing Gibbous
Jan 26
Full
Feb 3
Last Quarter
Feb 10
New
Feb 17
First Quarter

Hourly Weather History & Observations

Time (EST) Temp. Windchill Dew Point Humidity Pressure Visibility Wind Dir Wind Speed Gust Speed Precip Events Conditions
12:54 AM 23.0 °F 13.9 °F 3.9 °F 44% 30.29 in 10.0 mi North 8.1 mph - N/A   Clear
1:54 AM 21.9 °F 13.4 °F 3.9 °F 46% 30.31 in 10.0 mi Variable 6.9 mph - N/A   Clear
2:54 AM 21.9 °F 14.5 °F 1.9 °F 42% 30.32 in 10.0 mi North 5.8 mph - N/A   Clear
3:54 AM 23.0 °F 17.0 °F 1.0 °F 39% 30.32 in 10.0 mi North 4.6 mph - N/A   Overcast
4:54 AM 21.9 °F 17.2 °F 1.9 °F 42% 30.32 in 10.0 mi North 3.5 mph - N/A   Overcast
5:54 AM 21.0 °F 16.2 °F 1.9 °F 44% 30.33 in 10.0 mi North 3.5 mph - N/A   Scattered Clouds
6:54 AM 19.0 °F 12.3 °F 3.9 °F 52% 30.35 in 10.0 mi NW 4.6 mph - N/A   Clear
7:54 AM 21.9 °F 15.7 °F 3.9 °F 46% 30.36 in 10.0 mi NW 4.6 mph - N/A   Clear
8:54 AM 25.0 °F 19.3 °F 3.0 °F 39% 30.37 in 10.0 mi North 4.6 mph - N/A   Clear
9:54 AM 26.6 °F 21.2 °F 1.4 °F 34% 30.38 in 10.0 mi NNW 4.6 mph - N/A   Clear
10:54 AM 28.9 °F 23.9 °F 1.0 °F 30% 30.36 in 10.0 mi NW 4.6 mph - N/A   Clear
11:54 AM 30.9 °F 20.7 °F 1.0 °F 28% 30.32 in 10.0 mi WNW 13.8 mph - N/A   Clear
12:54 PM 32.0 °F 26.4 °F 1.9 °F 28% 30.28 in 10.0 mi Variable 5.8 mph - N/A   Clear
1:54 PM 33.1 °F 24.9 °F 1.9 °F 27% 30.25 in 10.0 mi West 10.4 mph - N/A   Scattered Clouds
2:54 PM 34.0 °F - -0.0 °F 24% 30.23 in 10.0 mi Calm Calm - N/A   Clear
3:54 PM 35.1 °F 27.9 °F -0.0 °F 23% 30.23 in 10.0 mi NW 9.2 mph - N/A   Scattered Clouds
4:54 PM 34.0 °F 28.0 °F 1.0 °F 25% 30.22 in 10.0 mi NNW 6.9 mph - N/A   Clear
5:54 PM 30.0 °F 26.5 °F 3.0 °F 32% 30.23 in 10.0 mi East 3.5 mph - N/A   Partly Cloudy
6:54 PM 32.0 °F 26.4 °F 3.9 °F 31% 30.21 in 10.0 mi SSE 5.8 mph - N/A   Overcast
7:54 PM 32.0 °F 28.7 °F 8.1 °F 37% 30.19 in 10.0 mi ESE 3.5 mph - N/A   Overcast
8:54 PM 33.1 °F 28.7 °F 7.0 °F 34% 30.18 in 10.0 mi SSE 4.6 mph - N/A   Overcast
9:54 PM 34.0 °F 28.8 °F 9.0 °F 35% 30.17 in 10.0 mi South 5.8 mph - N/A   Overcast
10:54 PM 35.1 °F 31.0 °F 10.0 °F 35% 30.14 in 10.0 mi South 4.6 mph - N/A   Overcast
11:54 PM 35.1 °F 31.0 °F 12.0 °F 39% 30.12 in 10.0 mi SSW 4.6 mph - N/A   Overcast